[[{"header":{"parameterUnit":"m.s-1","parameterCategory":1,"la1":30.2991,"la2":30.254,"lo1":-89.0895,"lo2":-89.0444,"dy":0.0017,"dx":0.0017,"nx":28,"ny":28,"refTime":"2025-12-31T03:00:00:Z","depth":0,"parameterNumber":2,"parameterNumberName":"U-component_of_WINDS"},"data":[0,0,0,0,0,0,0,0,0,0,0,0,0,0,0,0,0,0,0,0,0,0,0,0,0,0,0,0,0,0,0,0,0,0,0,0,0,0,0,0,0,0,0,0,0,0,0,0,0,0,0,0,0,0,0,0,0,0,1.8539,1.8542,0,1.8787,1.879,1.8793,1.8833,1.8831,1.8828,1.8826,1.9086,1.9095,1.9104,0,0,0,0,0,0,0,0,0,0,0,0,0,1.8106,1.8114,1.8539,1.8542,1.8545,1.8786,1.879,1.8793,1.8833,1.8831,1.8828,1.8825,1.9083,1.9094,1.9105,0,0,0,0,0,0,0,0,0,0,0,0,0,1.8318,1.8116,1.8538,1.8594,1.8601,1.8786,1.879,1.8794,1.8834,1.883,1.8827,1.8824,1.908,1.9093,1.9106,1.9254,0,0,1.9147,1.9153,0,0,0,0,0,0,0,0,1.8306,1.8334,1.8583,1.859,1.8599,1.8775,1.8733,1.8949,1.8835,1.8746,1.8826,1.8823,1.8986,1.9007,1.9061,1.9267,1.9278,1.9148,1.9157,1.9162,1.9166,0,0,0,0,0,0,0,1.8291,1.8323,1.8637,1.8586,1.8596,1.8608,1.8635,1.8774,1.8881,1.8753,1.8757,1.8785,1.899,1.9048,1.9067,1.9282,1.9148,1.916,1.9168,1.9173,1.9623,1.9627,0,0,0,0,0,0,1.8266,1.8311,1.8629,1.8645,1.8441,1.8619,1.8649,1.8722,1.888,1.8901,1.8788,1.8786,1.9026,1.9051,1.9076,1.9261,1.9162,1.9175,1.9182,1.962,1.9624,1.9628,0,0,0,0,0,0,1.8256,1.8294,1.8619,1.8479,1.8521,1.863,1.8712,1.8729,1.8787,1.8906,1.8926,1.8827,1.9025,1.9058,1.921,1.9271,1.9181,1.9193,1.9615,1.9621,1.9626,1.9631,0,0,0,0,0,0,1.8243,1.829,1.8346,1.848,1.8528,1.8746,1.8716,1.8736,1.8809,1.8809,1.8948,1.8968,1.9025,1.919,1.9223,1.9288,1.9204,1.961,1.9618,1.9625,1.9626,1.9637,1.9646,0,0,0,0,0,1.8228,1.8338,1.8348,1.8387,1.86,1.875,1.8778,1.884,1.8814,1.8872,1.8949,1.8963,1.9259,1.9205,1.9243,1.9313,1.9606,1.9615,1.9624,1.9622,1.9635,1.9645,0,0,0,0,0,0,1.8211,1.8357,1.837,1.8526,1.8625,1.8756,1.8831,1.8851,1.8961,1.8957,1.9031,1.9062,1.9211,1.9277,1.9214,1.9465,1.9431,1.9448,1.9416,1.9429,1.9439,1.942,1.9215,0,0,0,0,0,1.8224,1.8332,1.8455,1.8581,1.863,1.8722,1.879,1.8829,1.8935,1.8977,1.9065,1.917,1.9286,1.9361,1.9475,1.9636,1.9668,1.9703,1.9713,1.972,1.9734,1.9826,1.9843,1.9657,1.9657,1.9657,0,0,1.8255,1.8349,1.8412,1.858,1.8661,1.8773,1.8757,1.8875,1.896,1.8996,1.9145,1.9213,1.9335,1.9492,1.9566,1.9552,1.9792,1.9731,1.9736,1.9746,1.9836,1.9854,1.9869,1.9663,1.9662,1.9661,0,0,1.8369,1.8449,1.8564,1.8645,1.8768,1.8828,1.8856,1.8985,1.9031,1.9181,1.9211,1.9313,1.9512,1.9597,1.9667,1.9813,1.9831,1.9848,1.9899,1.9988,2.0002,2.0016,2.0069,2.0087,1.9862,1.9862,1.9862,0,1.8392,1.8559,1.8621,1.8738,1.8812,1.8848,1.8966,1.9043,1.9197,1.9248,1.923,1.9481,1.9565,1.9744,1.9779,1.9834,1.9869,1.9833,1.9995,2.0009,2.0023,2.0074,2.0094,1.9863,1.9863,1.9863,1.9863,0,1.8582,1.8698,1.8776,1.8922,1.9005,1.9122,1.9203,1.928,1.9312,1.9375,1.9529,1.9631,1.9767,1.9812,1.9845,1.9997,1.9984,1.9979,1.9947,2.004,2.0091,2.0111,1.9865,1.9865,1.9864,1.9864,0,0,1.8691,1.887,1.8898,1.8965,1.9103,1.9195,1.9315,1.9446,1.9511,1.9616,1.972,1.9887,1.9884,1.9963,2.0006,2.0084,2.0195,2.007,2.0074,2.0091,2.0369,2.0372,2.0394,2.0207,2.0211,2.0214,2.036,0,1.8821,1.9033,1.9093,1.9273,1.9382,1.9419,1.9523,1.962,1.9683,1.9786,1.9856,1.9974,1.996,2.0008,2.0086,2.0164,2.0252,2.0155,2.0306,2.0311,2.0275,2.042,2.0424,2.0556,2.0379,2.0383,2.0385,0,1.9001,1.9109,1.9299,1.9424,1.9472,1.9565,1.969,1.9787,1.9899,1.994,2.0028,2.0064,2.0193,2.0152,2.0332,2.0264,2.033,2.0378,2.0385,2.0402,2.0354,2.0442,2.0599,2.0619,2.0416,2.0414,2.0412,0,1.9063,1.9255,1.9394,1.9451,1.96,1.9664,1.973,1.9838,1.9914,2.0024,2.0074,2.0198,2.0267,2.0363,2.0434,2.0397,2.0608,2.0572,2.0646,2.0645,2.069,2.0686,2.086,2.073,2.073,2.073,2.0729,0,1.9202,1.9318,1.9424,1.9509,1.9641,1.9709,1.9838,1.9905,2.0002,2.0103,2.0143,2.0237,2.0323,2.043,2.0486,2.0627,2.0657,2.0695,2.0709,2.0692,2.0687,2.0737,2.073,2.0735,2.0734,2.0733,2.0732,0,1.9293,1.9369,1.9523,1.9651,1.9686,1.9778,1.9889,1.9975,2.0038,2.0166,2.02,2.0301,2.0429,2.0508,2.0671,2.0708,2.0864,2.0874,2.0825,2.0832,2.0902,2.0894,2.1114,2.1147,2.0994,2.0996,2.0997,0,1.9377,1.9467,1.9605,1.9674,1.974,1.9852,1.9928,2.0,2.0078,2.0213,2.0283,2.0413,2.0521,2.0724,2.0813,2.0939,2.0953,2.1021,2.0972,2.0953,2.0955,2.0949,2.0959,2.1029,2.1031,2.1032,2.1033,0,1.9519,1.9552,1.966,1.9782,1.9872,1.9972,2.0071,2.0126,2.0215,2.0302,2.0432,2.0515,2.0681,2.081,2.0943,2.1014,2.1039,2.1047,2.1071,2.1056,2.1024,2.1043,2.0849,2.1042,2.1041,2.104,2.104,2.104,1.9611,1.9692,1.9802,1.9922,2.0004,2.0096,2.0183,2.0257,2.0366,2.0505,2.0541,2.0678,2.079,2.0971,2.1044,2.1154,2.1144,2.1178,2.1188,2.1195,2.1197,2.1006,2.1178,2.1178,2.1178,2.1178,2.1178,0,1.9756,1.9828,1.9937,2.0074,2.0169,2.0182,2.0293,2.0372,2.0491,2.0592,2.0697,2.0848,2.0974,2.1073,2.1203,2.1272,2.1287,2.1304,2.13,2.1316,2.1198,2.1164,2.1289,2.1289,2.1289,2.1289,2.1289,2.1289,1.9842,1.9981,2.0027,2.0209,2.0281,2.0414,2.0476,2.0563,2.0644,2.0809,2.0913,2.0976,2.1078,2.1215,2.1332,2.1359,2.1405,2.142,2.1449,2.1336,2.1324,2.1312,2.1282,2.1429,2.1429,2.1558,2.1559,2.156]},{"header":{"parameterUnit":"m.s-1","parameterCategory":1,"la1":30.2991,"la2":30.254,"lo1":-89.0895,"lo2":-89.0444,"dy":0.0017,"dx":0.0017,"nx":28,"ny":28,"refTime":"2025-12-31T03:00:00:Z","depth":0,"parameterNumber":3,"parameterNumberName":"V-component_of_WINDS"},"data":[0,0,0,0,0,0,0,0,0,0,0,0,0,0,0,0,0,0,0,0,0,0,0,0,0,0,0,0,0,0,0,0,0,0,0,0,0,0,0,0,0,0,0,0,0,0,0,0,0,0,0,0,0,0,0,0,0,0,4.0066,4.0068,0,4.0234,4.0236,4.0238,4.022,4.0217,4.0215,4.0212,4.0381,4.0388,4.0395,0,0,0,0,0,0,0,0,0,0,0,0,0,3.9729,3.9735,4.0066,4.0068,4.0071,4.0234,4.0236,4.0238,4.022,4.0217,4.0214,4.0211,4.0379,4.0387,4.0396,0,0,0,0,0,0,0,0,0,0,0,0,0,3.9884,3.9737,4.0066,4.0081,4.0084,4.0233,4.0236,4.0239,4.0221,4.0217,4.0213,4.0209,4.0376,4.0387,4.0397,4.0541,0,0,4.0429,4.0433,0,0,0,0,0,0,0,0,3.9875,3.9896,4.0077,4.008,4.0084,4.0202,4.0179,4.034,4.0222,4.0169,4.0212,4.0207,4.0325,4.0339,4.0379,4.0549,4.0556,4.043,4.0436,4.0441,4.0444,0,0,0,0,0,0,0,3.9864,3.9889,4.0133,4.0079,4.0084,4.0079,4.0097,4.021,4.0267,4.0173,4.0172,4.0193,4.0326,4.0369,4.0383,4.0558,4.0429,4.0439,4.0445,4.0449,4.0855,4.0859,0,0,0,0,0,0,3.985,3.988,4.0127,4.0138,3.9968,4.0088,4.0108,4.0168,4.0266,4.0277,4.0196,4.0191,4.0353,4.0371,4.0389,4.0565,4.044,4.045,4.0456,4.085,4.0856,4.0861,0,0,0,0,0,0,3.9843,3.9872,4.012,4.0009,4.004,4.0098,4.0166,4.0174,4.0217,4.0283,4.0293,4.023,4.0351,4.0374,4.0504,4.057,4.0455,4.0464,4.0845,4.0852,4.0858,4.0916,0,0,0,0,0,0,3.9833,3.987,3.9925,4.001,4.0046,4.0233,4.017,4.018,4.0235,4.0231,4.0317,4.0328,4.035,4.0488,4.0514,4.0582,4.0473,4.0839,4.0848,4.0856,4.0909,4.0924,4.0937,0,0,0,0,0,3.9821,3.9934,3.9928,3.9958,4.0117,4.0237,4.0257,4.0281,4.0241,4.0297,4.0339,4.0325,4.0559,4.0501,4.053,4.0603,4.0835,4.0846,4.0856,4.0902,4.0921,4.0937,0,0,0,0,0,0,3.9855,3.9946,3.994,4.0084,4.0153,4.0234,4.0305,4.03,4.0381,4.0373,4.0398,4.0418,4.0549,4.0589,4.0523,4.0748,4.0691,4.0708,4.0717,4.0735,4.075,4.0737,4.0481,0,0,0,0,0,3.9879,3.997,4.0044,4.0164,4.0199,4.0246,4.0299,4.0312,4.0384,4.0413,4.0464,4.0534,4.0623,4.0682,4.0767,4.0914,4.0933,4.0979,4.0993,4.1004,4.1018,4.1099,4.1121,4.0894,4.0894,4.0894,0,0,3.993,3.9991,4.0046,4.0172,4.0227,4.032,4.0271,4.0371,4.044,4.0427,4.0553,4.0594,4.0673,4.0812,4.0876,4.0849,4.1085,4.1017,4.1026,4.1034,4.1112,4.1133,4.1152,4.0901,4.09,4.0899,0,0,4.0071,4.0126,4.0232,4.0288,4.0372,4.0403,4.0429,4.0511,4.0538,4.0664,4.0657,4.0739,4.0892,4.0949,4.0999,4.1162,4.1151,4.1189,4.1264,4.1343,4.1361,4.1376,4.1435,4.1456,4.1202,4.1202,4.1203,0,4.0123,4.0263,4.0287,4.0389,4.0444,4.0439,4.0546,4.0599,4.0707,4.0745,4.0714,4.0907,4.096,4.1112,4.1152,4.1192,4.1222,4.1179,4.1356,4.1372,4.1388,4.1444,4.1466,4.1206,4.1206,4.1206,4.1205,0,4.0324,4.0421,4.0497,4.0602,4.0666,4.077,4.081,4.0871,4.0878,4.0912,4.1041,4.1105,4.1204,4.1241,4.1248,4.1395,4.1376,4.1351,4.1294,4.1413,4.1466,4.1488,4.1212,4.1211,4.121,4.1209,0,0,4.049,4.0608,4.0635,4.0683,4.0776,4.0851,4.0955,4.1053,4.1106,4.118,4.1267,4.1398,4.1375,4.1431,4.1444,4.1513,4.1639,4.1479,4.1482,4.1507,4.1805,4.1824,4.1848,4.1633,4.1637,4.164,4.1798,0,4.0639,4.0824,4.0849,4.1013,4.1103,4.1099,4.119,4.1256,4.1291,4.1372,4.141,4.1502,4.1465,4.1498,4.1567,4.1609,4.1699,4.1598,4.1714,4.1718,4.1695,4.1876,4.1896,4.2043,4.1819,4.1823,4.1825,0,4.0839,4.092,4.1093,4.1174,4.1213,4.1294,4.1386,4.1464,4.1539,4.1559,4.1622,4.1628,4.1735,4.1674,4.1822,4.1753,4.1801,4.183,4.1836,4.1848,4.1779,4.1893,4.209,4.2112,4.1858,4.1856,4.1853,0,4.0943,4.1096,4.1219,4.126,4.1358,4.1415,4.1458,4.153,4.1587,4.1667,4.1704,4.1795,4.1845,4.1915,4.1945,4.1898,4.2091,4.2033,4.2111,4.211,4.2151,4.2148,4.2359,4.2183,4.2182,4.2182,4.2181,0,4.1108,4.1214,4.1267,4.1343,4.1462,4.1489,4.1606,4.1646,4.171,4.1794,4.1795,4.1873,4.1908,4.1991,4.2014,4.2133,4.2156,4.2175,4.218,4.2175,4.2173,4.2208,4.2198,4.2188,4.2186,4.2185,4.2184,0,4.1244,4.1284,4.1419,4.1501,4.1524,4.1608,4.1677,4.1751,4.1785,4.1891,4.1917,4.197,4.2069,4.2105,4.2224,4.224,4.2378,4.2374,4.2353,4.2354,4.243,4.2423,4.2671,4.2705,4.2505,4.2507,4.2509,0,4.1347,4.1429,4.152,4.1577,4.1622,4.1713,4.1772,4.1802,4.1863,4.1956,4.2018,4.2116,4.2196,4.2353,4.2402,4.2493,4.2492,4.2573,4.2506,4.2498,4.2494,4.2489,4.2497,4.2585,4.2587,4.2589,4.259,0,4.1525,4.1541,4.1627,4.172,4.179,4.1865,4.1937,4.1983,4.2024,4.2092,4.2193,4.2256,4.2378,4.2475,4.2569,4.2613,4.2609,4.2611,4.2634,4.263,4.2614,4.2624,4.2387,4.2605,4.2604,4.2602,4.2602,4.2601,4.1648,4.1721,4.1797,4.1892,4.195,4.2018,4.2091,4.2135,4.222,4.2323,4.2335,4.2444,4.2517,4.2643,4.2691,4.2776,4.2754,4.2787,4.2796,4.2803,4.2809,4.2601,4.2793,4.2793,4.2792,4.2792,4.2792,0,4.1827,4.1876,4.1963,4.2065,4.214,4.2131,4.221,4.2273,4.2369,4.2439,4.2518,4.2634,4.2729,4.2786,4.288,4.2938,4.2938,4.2961,4.2958,4.2968,4.2823,4.2794,4.296,4.2959,4.2959,4.2959,4.2959,4.2959,4.1929,4.2052,4.2077,4.2228,4.2276,4.2384,4.243,4.2492,4.2548,4.2678,4.2757,4.2794,4.2859,4.2958,4.3045,4.3059,4.3094,4.3119,4.3131,4.2995,4.2978,4.2961,4.2934,4.3126,4.3127,4.3269,4.3271,4.3271]}]]